CZ-4C DEB, 54702

Orbit data source: Space-Track

CZ-4C DEB, 54702 is space debris in LEO originally from a launch on Mon, 12 Dec 2022 UTC launched from the Jiuquan Satellite Launch Center, China (JSC). Debris objects in space refer to the collection of defunct objects orbiting the Earth. Examples of debris include non-operational satellites, rocket bodies, and fragments generated from explosions, collisions, or faulty payload assembly.

Loading next visibility...
Identifier
54702, 2022-169D
Orbit
LEO
Country
Flag of CNCN / PRC
Related business
Manufacturer
SAST
Mission
Spacecraft
Bus & Motor
Unknown
Mass
~100 kg wet, ~100 kg dry
Launch date (UTC)
2022-12-12 (4 years ago)
Launch vehicle
Unknown
Launch site
Jiuquan Satellite Launch Center, China (JSC)
Object type
Payload
Rocket body
Debris
Shape & HBR
Cyl, 1.3 m
Radar Cross Section
7.363 m², Large (>1 m²)

Expand to show TLE details & history
Last TLE update: 2 days ago

TLE from 2 days ago
0 CZ-4C DEB
1 54702U 22169D   26171.42918983  .00000157  00000-0  10846-3 0  9994
2 54702  59.9955 217.8499 0007380 187.7495 172.3428 14.32378111184057
Epoch: 2026-06-20T10:18Z
TLE epoch observation values (Epoch: 2026-06-20T10:18:02.001Z)
Latitude
-0.00006°
Longitude
154.69759°
Altitude
790.565 km
Speed
7.456 km/s
True Right ascension
14h 31m 23s
True Declination
0° 00' 00"
Sunlit
Object was in full shadow at epoch
Visualization orbit readout
Latitude
Unknown
Longitude
Unknown
Altitude
Unknown
Speed
Unknown
Apparent Right ascension
Unknown
Apparent Declination
Unknown
Sunlit
N/A
Visualization observer readout
Local Sidereal Time
21:27:01
Azimuth
Unknown
Elevation
Unknown
Doppler factor
Unknown
Orbital elements
Apogee altitude
788.314 km
Perigee altitude
777.744 km
Semi-major axis
7,161.166 km
Eccentricity
0.00074
Inclination
59.9955°
RAAN
217.8499°
Arg. of periapsis
187.7495°
True anomaly
172.35406°
Mean anomaly
172.3428°
Eccentric anomaly
172.34843°
Mean motion
3.58152 °/min
Orbital period
100.52 mins
BSTAR
0.00010846
Loading maneuver chart data...
Computing Atmospheric mass density...
Loading historical data...
Loading historical data...
Loading historical data...
Loading historical data...
Loading historical data...
Loading historical data...
Loading historical data...
Other satellites on launch #169 in the year 2022 (2022-12-12 UTC)

Documentation

Showing up to 5 results
|